Regional Weather Roundup
Issued by NWS Little Rock, AR

Home | Current Version | Previous Version | Text Only | Print | Product List | Glossary On
Versions: 1 2 3 4 5 6 7 8 9 10 11 12 13 14 15 16 17 18 19 20 21 22 23 24 25 26 27
000
ASUS44 KLZK 010105
RWRLZK

WEATHER ROUNDUP FOR ARKANSAS
NATIONAL WEATHER SERVICE LITTLE ROCK AR
800 PM CDT SAT APR 30 2016

NOTE: "FAIR" INDICATES FEW OR NO CLOUDS BELOW 12,000 FEET WITH NO
SIGNIFICANT WEATHER AND/OR OBSTRUCTIONS TO VISIBILITY.

ARZ001-003-010-029-010200-
NORTHWEST ARKANSAS

CITY           SKY/WX    TMP DP  RH WIND       PRES   REMARKS
FAYETTEVILLE   CLOUDY    64  60  87 W8        29.81R
FORT SMITH     MOCLDY    68  59  73 W8        29.79R
HARRISON       CLEAR     67  58  72 NW8       29.79R
BENTONVILLE    CLEAR     63  54  72 NW6       29.82R
ROGERS         CLEAR     63  57  81 W7        29.82R
SILOAM SPGS    CLEAR     63  52  67 W5        29.83R
HIGHFILL       CLEAR     63  57  81 W3        29.81R
SPRINGDALE     PTCLDY    64  59  82 W7        29.83R
$$

ARZ004-005-016-010200-
NORTH CENTRAL ARKANSAS

CITY           SKY/WX    TMP DP  RH WIND       PRES   REMARKS
BATESVILLE     CLOUDY    72  63  73 SE3       29.77S
FLIPPIN        PTCLDY   N/A N/A N/A CALM      29.74R
MTN HOME       MOCLDY    60  58  92 N3        29.75S
$$

ARZ040-041-010200-
WEST CENTRAL ARKANSAS

CITY           SKY/WX    TMP DP  RH WIND       PRES   REMARKS
MENA           CLEAR     72  68  88 N3        29.78R
MOUNT IDA      CLEAR     73  64  73 CALM      29.74R
$$

ARZ009-017-025-026-028-010200-
NORTHEAST ARKANSAS

CITY           SKY/WX    TMP DP  RH WIND       PRES   REMARKS
CORNING          N/A     70  64  83 SE7       29.79S
JONESBORO      CLOUDY    72  62  71 S6        29.80R
NEWPORT        CLEAR     71  65  81 SE6       29.79R
WALNUT RIDGE   CLEAR     72  63  73 SE13      29.77F
BLYTHEVILLE      N/A     71  63  75 SE7       29.82R
$$

ARZ022-023-033-042-044-010200-
CENTRAL ARKANSAS

CITY           SKY/WX    TMP DP  RH WIND       PRES   REMARKS
LITTLE ROCK    MOCLDY    76  65  68 SE3       29.77R
N LITTLE ROCK    N/A     71  66  84 CALM      29.76R
JACKSONVILLE   CLOUDY    74  67  78 E5        29.77R
SEARCY         CLOUDY    71  65  81 SE6       29.79R
HOT SPRINGS    CLEAR     74  63  68 SE5       29.76R
RUSSELLVILLE   CLOUDY    66  62  87 CALM      29.76R
$$

ARZ036-010200-
EAST ARKANSAS

CITY           SKY/WX    TMP DP  RH WIND       PRES   REMARKS
WEST MEMPHIS   CLEAR     70  65  84 E3        29.80S
$$

ARZ050-053-066-070-073-010200-
SOUTHWEST ARKANSAS

CITY           SKY/WX    TMP DP  RH WIND       PRES   REMARKS
ARKADELPHIA    FAIR      76  74  93 CALM      29.76R
CAMDEN         CLEAR     73  66  78 SE3       29.75R
TEXARKANA      PTCLDY    73  69  87 CALM      29.75R
EL DORADO      CLEAR     74  69  85 SE5       29.76R
DE QUEEN       CLEAR     73  66  78 W7        29.74R
$$

ARZ056-057-069-010200-
SOUTHEAST ARKANSAS

CITY           SKY/WX    TMP DP  RH WIND       PRES   REMARKS
PINE BLUFF     CLEAR     73  66  78 SE8       29.76R
STUTTGART      CLEAR     75  63  64 SE9       29.78R
MONTICELLO     PTCLDY    74  68  81 SE5       29.77R

$$






USA.gov is the U.S. government's official web portal to all federal, state and local government web resources and services.